Location: Goll?ig?dem
(16.6773°N, 80.7332°E)
Time: 15:13:16
(UTC+00:00)

CSL-04 Debris - Pass Details

Date: 19 May 2025
Orbit: 819 x 841 km, 98.7° (Epoch: 17 June)

Event Time Altitude Azimuth Distance (km) Brightness Sun altitude
Exits shadow 14:36:45 44° 122° (ESE) 1,147 4.4 -21.3°
Maximum altitude 14:38:05 55° 76° (ENE) 999 4.3 -21.6°
Drops below altitude 10° 14:43:24 10° 359° (N) 2,454 7.0 -22.7°
Sets 14:45:48 0° 355° (N) 3,390 7.8 -23.2°
